Find Starlink 33925

NORAD ID: 63793 Int'l Des: 2025-091 Owner: SPXS Country: US Constellation: starlink operational
LEOCIRCULAR

Live Position

Loading 3D Globe...

About Starlink 33925

Description loading...

Upcoming Passes

Passes for default location (London). Set your location on the main map for personalized predictions.

Altitude History

Loading altitude history...

Two-Line Element Set

1 63793U 25091U 26124.98150105 .00020897 00000-0 76660-3 0 9993
2 63793 43.0013 94.4117 0001200 238.8536 121.2198 15.27587385 57620
Epoch: May 4, 2026 • Age: 23 hours

Current Status

Altitude 482.4 km
Velocity 7.63 km/s
Sub-Earth Point -0.92°S, 71.5°E
Launch Date May 2, 2025
Age 1 years
Type internet

Technical Details

Classification Payload
Mass 575.00 kg
Dry Mass 530.00 kg
Total Mass 575.00 kg
Length 0.30 m
Diameter 4.10 m
Span 29.00 m
Shape Box + pan
Manufacturer SPXS
Bus Type Starlink V2MO
Phase Status In Orbit
Owner/State SPXS/US

Most Searched